DW9313 Weather Reports


time (UTC)temp
F
wind
direction
speed
knots
gust
knots
rain 1hr
in
rain 24hr
in
rain mn
in
humidity
%
barometer
mb
20260903045317 60 330 0.0 0.9 0.00 0.10 0.00 93 1013.5
20260903044816 60 257 0.0 0.9 0.00 0.12 0.00 93 1013.6
20260903044317 61 287 0.0 0.9 0.00 0.13 0.00 93 1013.7
20260903043816 61 355 0.0 0.9 0.00 0.14 0.00 93 1013.8
20260903043317 61 304 0.9 2.6 0.00 0.15 0.00 93 1013.9
20260903042317 61 299 0.9 4.3 0.00 0.16 0.00 93 1013.8
20260903041817 61 280 0.9 5.2 0.00 0.17 0.00 93 1013.8
20260903040817 61 292 1.7 6.1 0.00 0.18 0.00 93 1013.9
20260903040318 61 286 0.9 4.3 0.00 0.18 0.00 93 1013.9
20260903035818 61 281 2.6 5.2 0.00 0.19 0.00 93 1014.0
20260903035318 61 286 0.0 4.3 0.00 0.20 0.00 93 1013.9
20260903034817 61 275 1.7 5.2 0.00 0.21 0.00 93 1014.0
20260903034318 61 295 0.9 4.3 0.00 0.21 0.00 93 1014.0
20260903033818 61 316 1.7 4.3 0.00 0.22 0.00 93 1013.9
20260903033318 61 304 2.6 5.2 0.00 0.23 0.00 93 1013.8
20260903032817 61 305 1.7 5.2 0.00 0.24 0.00 93 1013.8
20260903032319 61 301 1.7 5.2 0.00 0.24 0.00 93 1013.9
20260903031317 61 305 0.9 2.6 0.00 0.24 0.00 93 1013.7
20260903030317 61 303 0.9 4.3 0.00 0.27 0.00 93 1013.7
20260903025818 61 309 1.7 5.2 0.00 0.28 0.00 93 1013.6
20260903025318 61 299 1.7 5.2 0.00 0.28 0.00 93 1013.6
20260903024818 61 300 0.9 5.2 0.00 0.28 0.00 93 1013.5
20260903024317 61 302 0.0 2.6 0.00 0.31 0.00 93 1013.5
20260903023818 61 299 0.0 1.7 0.00 0.31 0.00 92 1013.6
20260903023317 61 296 0.0 2.6 0.00 0.31 0.00 92 1013.6
20260903022818 62 291 0.9 2.6 0.00 0.31 0.00 92 1013.5
20260903022317 62 297 0.9 1.7 0.00 0.32 0.00 91 1013.5
20260903021319 62 306 0.0 0.9 0.00 0.33 0.00 91 1013.6
20260903020818 62 304 0.0 4.3 0.00 0.34 0.00 91 1013.6
20260903020318 62 297 0.9 2.6 0.00 0.35 0.00 92 1013.5
20260903015818 62 292 0.0 0.9 0.00 0.35 0.00 92 1013.4
20260903015317 62 292 0.9 5.2 0.00 0.36 0.00 92 1013.5
20260903014820 62 305 0.0 0.9 0.00 0.36 0.00 92 1013.4
20260903014318 62 257 0.0 0.9 0.00 0.36 0.00 92 1013.5
20260903013818 62 298 0.0 0.9 0.00 0.36 0.00 92 1013.5
20260903013319 62 303 0.9 2.6 0.00 0.37 0.00 92 1013.6
20260903012819 62 300 0.9 2.6 0.00 0.37 0.00 92 1013.6
20260903012320 62 287 0.9 2.6 0.00 0.37 0.00 92 1013.6
20260903011818 62 310 0.9 4.3 0.00 0.38 0.00 92 1013.7
20260903011319 62 310 1.7 5.2 0.00 0.38 0.00 92 1013.7
20260903010818 62 292 2.6 7.0 0.00 0.39 0.00 92 1013.8
20260903005819 62 297 0.9 4.3 0.00 0.39 0.00 93 1013.5
20260903005318 62 298 0.9 2.6 0.00 0.39 0.00 93 1013.4
20260903004820 62 289 0.0 4.3 0.00 0.40 0.00 93 1013.4
20260903004318 62 292 0.0 2.6 0.00 0.40 0.00 93 1013.4
20260903003820 62 255 0.0 2.6 0.00 0.41 0.00 93 1013.4
20260903003318 63 320 0.0 1.7 0.00 0.42 0.00 93 1013.3
20260903002319 63 264 0.0 1.7 0.00 0.43 0.00 93 1013.4
20260903001820 63 284 1.7 5.2 0.00 0.43 0.00 93 1013.3
20260903001319 63 282 1.7 5.2 0.00 0.43 0.00 94 1013.2
20260903000818 63 310 1.7 5.2 0.00 0.44 0.00 94 1013.4
20260903000318 62 301 1.7 4.3 0.00 0.45 0.00 95 1013.4
20260902235820 63 318 0.9 5.2 0.00 0.46 0.00 95 1013.4
20260902235318 63 290 0.9 2.6 0.00 0.46 0.00 96 1013.4
20260902234820 63 301 1.7 5.2 0.00 0.47 0.00 96 1013.3
20260902234319 63 234 0.0 2.6 0.00 0.48 0.00 96 1013.3
20260902233819 63 300 0.9 4.3 0.00 0.48 0.00 96 1013.3
20260902233319 63 281 0.9 2.6 0.00 0.48 0.00 96 1013.3
20260902232819 63 232 0.0 1.7 0.00 0.48 0.00 96 1013.3
20260902232320 62 290 0.9 2.6 0.00 0.48 0.00 96 1013.1
20260902231820 62 325 0.0 1.7 0.00 0.48 0.00 96 1013.2
20260902231319 63 251 0.0 1.7 0.00 0.48 0.00 95 1013.2
20260902230837 63 294 0.0 2.6 0.00 0.48 0.00 95 1013.2
20260902230321 63 319 0.9 4.3 0.00 0.48 0.00 95 1013.1
20260902225319 63 239 0.0 0.9 0.00 0.48 0.48 95 1013.0
20260902224820 63 283 0.0 0.9 0.00 0.48 0.48 95 1013.2
20260902223821 63 217 0.9 2.6 0.00 0.48 0.48 95 1013.2
20260902223320 63 218 0.9 2.6 0.00 0.48 0.48 95 1013.3
20260902221731 63 299 0.9 5.2 0.00 0.48 0.48 95 1013.1
20260902221220 63 291 0.9 5.2 0.00 0.48 0.48 95 1013.1
20260902220731 63 313 1.7 5.2 0.00 0.48 0.48 95 1013.2
20260902220220 63 314 0.9 5.2 0.00 0.48 0.48 95 1012.9
20260902215718 63 9 0.0 4.3 0.00 0.48 0.48 95 1012.9
20260902215219 63 305 1.7 5.2 0.00 0.48 0.48 95 1013.1
20260902214720 63 305 1.7 6.1 0.00 0.48 0.48 95 1013.2
20260902214220 63 306 1.7 5.2 0.00 0.48 0.48 95 1013.1
20260902213719 64 286 1.7 5.2 0.00 0.48 0.48 95 1013.1
20260902213221 64 287 1.7 6.1 0.00 0.48 0.48 95 1013.1
20260902212720 64 296 0.9 5.2 0.00 0.48 0.48 95 1012.8
20260902212219 64 295 1.7 5.2 0.00 0.48 0.48 95 1012.8
20260902211721 64 294 0.9 4.3 0.00 0.48 0.48 95 1012.6
20260902211219 64 289 1.7 7.8 0.00 0.48 0.48 95 1012.5
20260902210719 64 296 1.7 5.2 0.00 0.48 0.48 95 1012.5
20260902210220 64 297 2.6 6.1 0.00 0.48 0.48 96 1012.4
20260902205720 64 303 2.6 6.1 0.00 0.48 0.48 96 1012.5
20260902205219 64 298 0.9 4.3 0.00 0.48 0.48 96 1012.5
20260902204720 64 304 0.9 5.2 0.00 0.48 0.48 96 1012.4
20260902204221 64 272 0.9 5.2 0.00 0.48 0.48 96 1012.3
20260902203721 64 306 0.9 5.2 0.00 0.48 0.48 96 1012.3
20260902203219 64 314 2.6 6.1 0.00 0.48 0.48 96 1012.4
20260902202720 64 292 1.7 6.1 0.00 0.48 0.48 96 1012.3
20260902202220 64 291 2.6 7.0 0.00 0.48 0.48 97 1012.4
20260902201221 64 305 1.7 4.3 0.00 0.48 0.48 97 1012.4
20260902200720 64 302 2.6 7.0 0.00 0.48 0.48 97 1012.4
20260902200221 64 300 1.7 6.1 0.00 0.48 0.48 97 1012.3
20260902195720 64 299 3.5 7.8 0.00 0.48 0.48 97 1012.3
20260902194720 64 319 2.6 8.7 0.00 0.48 0.48 96 1012.1
20260902194220 64 303 4.3 7.0 0.00 0.48 0.48 96 1012.0
20260902193720 64 305 4.3 10.4 0.00 0.48 0.48 96 1011.8
20260902193222 64 308 2.6 7.0 0.00 0.48 0.48 96 1011.7
20260902192721 64 293 3.5 10.4 0.00 0.48 0.48 96 1011.7
20260902191721 65 301 3.5 7.0 0.00 0.48 0.48 95 1011.8
20260902190721 65 316 1.7 7.0 0.00 0.48 0.48 95 1011.9
20260902190222 65 326 1.7 6.1 0.00 0.48 0.48 95 1011.9
20260902185722 65 301 1.7 5.2 0.00 0.48 0.48 95 1011.7
20260902185221 65 306 1.7 8.7 0.00 0.48 0.48 95 1011.8
20260902184720 65 308 2.6 7.8 0.00 0.48 0.48 95 1012.0
20260902183721 65 292 2.6 5.2 0.00 0.48 0.48 95 1011.9
20260902183220 65 320 2.6 5.2 0.00 0.48 0.48 95 1011.7
20260902182721 65 322 2.6 7.8 0.00 0.48 0.48 95 1011.6
20260902181720 65 286 2.6 7.0 0.00 0.48 0.48 95 1011.8
20260902181221 65 289 4.3 7.0 0.00 0.48 0.48 94 1011.9
20260902180722 65 291 2.6 7.8 0.00 0.48 0.48 94 1011.7
20260902175721 65 303 2.6 7.0 0.00 0.48 0.48 94 1011.6
20260902175222 65 297 2.6 7.8 0.00 0.48 0.48 93 1011.5
20260902174721 66 307 2.6 7.0 0.00 0.48 0.48 93 1011.6
20260902174220 66 273 3.5 8.7 0.00 0.48 0.48 93 1011.6
20260902173721 66 294 2.6 8.7 0.00 0.48 0.48 92 1011.4
20260902173222 66 300 4.3 8.7 0.00 0.48 0.48 92 1011.6
20260902172721 66 306 4.3 10.4 0.00 0.48 0.48 92 1011.6
20260902171721 66 292 4.3 8.7 0.00 0.48 0.48 92 1011.5
20260902171221 66 294 2.6 7.8 0.00 0.48 0.48 92 1011.6
20260902170722 66 307 4.3 11.3 0.00 0.48 0.48 91 1011.5
20260902165721 66 295 4.3 7.8 0.00 0.48 0.48 90 1011.6
20260902165223 67 320 2.6 8.7 0.00 0.48 0.48 90 1011.6
20260902164721 67 309 4.3 7.8 0.00 0.48 0.48 90 1011.7
20260902164221 67 295 4.3 10.4 0.00 0.48 0.48 89 1011.6
20260902163722 68 301 4.3 8.7 0.00 0.48 0.48 89 1011.4
20260902163222 68 314 5.2 10.4 0.00 0.48 0.48 89 1011.5
20260902162723 68 304 3.5 8.7 0.00 0.48 0.48 89 1011.4
20260902162222 68 298 3.5 7.8 0.00 0.48 0.48 89 1011.3
20260902161723 67 282 4.3 10.4 0.00 0.48 0.48 89 1011.5
20260902160724 67 285 4.3 7.8 0.00 0.48 0.48 89 1011.4
20260902160221 67 324 2.6 6.1 0.00 0.48 0.48 89 1011.4
20260902155721 68 313 2.6 7.0 0.00 0.48 0.48 89 1011.5
20260902154722 68 331 0.9 10.4 0.00 0.48 0.48 88 1011.5
20260902154223 68 292 1.7 5.2 0.00 0.48 0.48 88 1011.5
20260902153722 68 316 3.5 7.0 0.00 0.48 0.48 87 1011.6
20260902153222 69 294 1.7 5.2 0.00 0.48 0.48 86 1011.6
20260902152723 69 323 0.9 4.3 0.00 0.48 0.48 87 1011.5
20260902152222 69 280 1.7 5.2 0.00 0.48 0.48 87 1011.5
20260902151723 68 342 2.6 6.1 0.00 0.48 0.48 88 1011.5
20260902151223 68 295 2.6 7.0 0.00 0.48 0.48 87 1011.5
20260902150722 68 299 3.5 7.0 0.00 0.48 0.48 87 1011.5
20260902150222 68 303 2.6 7.8 0.00 0.48 0.48 87 1011.5
20260902145722 69 287 2.6 7.0 0.00 0.48 0.48 86 1011.5
20260902145224 69 311 1.7 5.2 0.00 0.48 0.48 86 1011.5
20260902144722 69 316 1.7 6.1 0.00 0.48 0.48 86 1011.4
20260902144223 69 311 2.6 6.1 0.00 0.48 0.48 85 1011.3
20260902143722 70 318 2.6 6.1 0.00 0.48 0.48 84 1011.3
20260902143223 71 18 2.6 5.2 0.00 0.48 0.48 83 1011.3
20260902141724 72 286 1.7 7.0 0.00 0.48 0.48 82 1011.2
20260902141224 73 245 1.7 10.4 0.00 0.48 0.48 83 1011.3
20260902140723 72 266 2.6 7.8 0.00 0.48 0.48 82 1011.3
20260902140223 72 306 2.6 8.7 0.00 0.48 0.48 83 1011.4
20260902135225 72 326 1.7 5.2 0.00 0.48 0.48 84 1011.4
20260902134224 72 171 1.7 6.1 0.00 0.48 0.48 84 1011.4
20260902133224 71 290 2.6 10.4 0.00 0.48 0.48 84 1011.4
20260902132723 71 272 2.6 10.4 0.00 0.48 0.48 85 1011.4
20260902132223 71 321 1.7 6.1 0.00 0.49 0.48 86 1011.3
20260902131723 70 301 2.6 7.0 0.00 0.49 0.48 86 1011.2
20260902131223 70 330 2.6 7.8 0.00 0.49 0.48 87 1011.3
20260902130724 70 301 1.7 5.2 0.00 0.49 0.48 86 1011.3
20260902130224 70 328 1.7 6.1 0.00 0.49 0.48 87 1011.4
20260902125724 70 292 5.2 8.7 0.00 0.49 0.48 86 1011.4
20260902124224 70 306 4.3 10.4 0.00 0.49 0.48 88 1011.2
20260902123723 70 310 5.2 7.8 0.00 0.49 0.48 88 1011.0
20260902122223 69 307 5.2 8.7 0.00 0.49 0.48 89 1010.9
20260902121223 69 291 2.6 8.7 0.00 0.49 0.48 90 1010.9
20260902120724 68 317 4.3 8.7 0.00 0.49 0.48 90 1011.0
20260902120225 68 319 4.3 10.4 0.00 0.49 0.48 91 1011.0
20260902115726 68 282 4.3 8.7 0.00 0.49 0.48 92 1011.1
20260902115224 68 297 4.3 7.0 0.00 0.49 0.48 92 1011.1
20260902114723 67 285 4.3 7.0 0.00 0.49 0.48 93 1011.1
20260902114224 67 295 2.6 6.1 0.00 0.49 0.48 93 1011.1
20260902113724 67 299 1.7 5.2 0.00 0.49 0.48 93 1011.3
20260902113224 67 277 1.7 7.0 0.00 0.49 0.48 93 1011.3
20260902112724 67 303 1.7 5.2 0.00 0.49 0.48 93 1011.3
20260902112225 67 311 1.7 5.2 0.00 0.49 0.48 94 1011.3
20260902111724 67 306 0.9 5.2 0.00 0.49 0.48 93 1011.3
20260902111224 67 285 0.9 5.2 0.00 0.49 0.48 94 1011.2
20260902110224 67 316 1.7 5.2 0.00 0.49 0.48 94 1011.4
20260902105725 67 274 0.0 5.2 0.00 0.49 0.48 95 1011.3
20260902105224 67 281 0.9 5.2 0.00 0.49 0.48 95 1011.4
20260902104225 66 338 0.0 1.7 0.00 0.49 0.48 96 1011.4
20260902103225 66 292 1.7 7.0 0.00 0.49 0.48 96 1011.4
20260902102725 66 296 0.9 5.2 0.00 0.49 0.48 96 1011.3
20260902101724 66 296 0.9 5.2 0.00 0.49 0.48 97 1011.2
20260902100724 66 297 0.9 5.2 0.00 0.49 0.48 98 1011.2
20260902095225 65 292 0.0 4.3 0.00 0.49 0.48 98 1011.1
20260902094724 65 315 0.0 1.7 0.00 0.49 0.48 98 1011.2
20260902094225 65 318 0.0 1.7 0.00 0.49 0.48 98 1011.2
20260902093726 65 281 0.0 1.7 0.00 0.49 0.48 98 1011.3
20260902093224 65 332 0.0 1.7 0.00 0.49 0.48 98 1011.2
20260902092726 65 312 0.0 5.2 0.00 0.49 0.48 98 1011.3
20260902092225 65 305 0.9 1.7 0.00 0.49 0.48 98 1011.3
20260902091725 65 298 0.9 5.2 0.00 0.49 0.48 98 1011.3
20260902091225 65 278 0.0 1.7 0.00 0.49 0.48 98 1011.1
20260902090726 65 305 0.0 1.7 0.00 0.49 0.48 98 1011.2
20260902090225 65 287 0.9 4.3 0.00 0.49 0.48 98 1011.1
20260902085726 65 294 0.9 4.3 0.00 0.49 0.48 98 1011.1
20260902085225 65 353 0.0 1.7 0.00 0.49 0.48 98 1011.1
20260902084725 64 205 0.0 2.6 0.00 0.49 0.48 98 1011.2
20260902084227 64 306 0.9 2.6 0.00 0.49 0.48 98 1011.2
20260902083726 64 296 0.9 5.2 0.00 0.49 0.48 98 1011.1
20260902083226 64 298 0.0 2.6 0.00 0.49 0.48 98 1011.1
20260902082725 64 271 0.0 4.3 0.00 0.49 0.48 98 1011.1
20260902082225 64 276 0.0 0.9 0.00 0.49 0.48 98 1011.0
20260902081725 64 321 0.9 4.3 0.00 0.49 0.48 98 1010.9
20260902081226 64 264 0.9 6.1 0.00 0.49 0.48 98 1011.0
20260902080725 64 193 0.9 5.2 0.00 0.49 0.48 98 1011.0
20260902080226 64 292 0.9 2.6 0.00 0.49 0.48 98 1011.0
20260902075727 64 300 0.9 5.2 0.00 0.49 0.48 98 1010.9
20260902075227 64 195 0.0 0.9 0.00 0.49 0.48 98 1010.9
20260902074726 64 299 0.9 2.6 0.00 0.49 0.48 98 1010.8
20260902073725 64 163 0.0 1.7 0.00 0.49 0.48 98 1010.8
20260902073226 64 287 0.0 1.7 0.00 0.49 0.48 98 1010.7
20260902072726 64 295 0.9 5.2 0.00 0.49 0.48 98 1010.8
20260902071727 64 307 0.0 1.7 0.00 0.49 0.48 98 1010.8
20260902071227 64 212 0.0 2.6 0.00 0.49 0.48 98 1010.7
20260902065726 64 181 0.0 0.9 0.01 0.49 0.48 98 1010.7
20260902065228 64 227 0.0 2.6 0.01 0.49 0.48 98 1010.6
20260902064727 64 0 0.0 1.7 0.01 0.49 0.48 98 1010.5
20260902064227 64 318 1.7 5.2 0.02 0.49 0.48 98 1010.5
20260902063226 63 8 1.7 7.0 0.02 0.49 0.48 98 1010.5
20260902062727 63 193 1.7 5.2 0.02 0.49 0.48 99 1010.5
20260902062226 63 191 1.7 7.8 0.03 0.49 0.48 98 1010.5
20260902060727 63 158 0.9 7.8 0.06 0.49 0.48 98 1010.7
20260902060227 62 175 4.3 8.7 0.07 0.49 0.48 98 1010.6
20260902055727 62 222 2.6 7.0 0.07 0.48 0.47 98 1010.8
20260902055227 62 189 2.6 7.0 0.08 0.48 0.47 98 1010.8
20260902054727 62 178 3.5 11.3 0.09 0.48 0.47 98 1010.7
20260902054227 62 180 1.7 7.0 0.11 0.47 0.46 98 1010.8
20260902053727 62 170 4.3 7.8 0.12 0.47 0.46 98 1011.0
20260902053227 62 163 5.2 8.7 0.12 0.46 0.46 98 1011.0
20260902052727 61 151 5.2 10.4 0.13 0.46 0.46 98 1011.1
20260902052228 61 159 5.2 7.8 0.13 0.46 0.45 98 1011.3
20260902051727 61 173 6.1 10.4 0.12 0.44 0.43 98 1011.3
20260902051226 61 171 5.2 10.4 0.11 0.43 0.43 98 1011.5
20260902050728 61 143 5.2 8.7 0.12 0.43 0.43 98 1011.5